[[{"header":{"parameterUnit":"m.s-1","parameterCategory":1,"la1":30.2991,"la2":30.254,"lo1":-89.0895,"lo2":-89.0444,"dy":0.0017,"dx":0.0017,"nx":28,"ny":28,"refTime":"2024-03-25T21:00:00:Z","depth":0,"parameterNumber":2,"parameterNumberName":"U-component_of_WINDS"},"data":[0,0,0,0,0,0,0,0,0,0,0,0,0,0,0,0,0,0,0,0,0,0,0,0,0,0,0,0,0,0,0,0,0,0,0,0,0,0,0,0,0,0,0,0,0,0,0,0,0,0,0,0,0,0,0,0,0,0,-9.6575,-9.6578,0,-9.6866,-9.6869,-9.6873,-9.6904,-9.6901,-9.6898,-9.6896,-9.7189,-9.7199,-9.721,0,0,0,0,0,0,0,0,0,0,0,0,0,-9.6043,-9.6053,-9.6575,-9.6578,-9.6582,-9.6866,-9.687,-9.6874,-9.6905,-9.6901,-9.6898,-9.6894,-9.7186,-9.7198,-9.7211,0,0,0,0,0,0,0,0,0,0,0,0,0,-9.6298,-9.6056,-9.6574,-9.6632,-9.664,-9.6865,-9.687,-9.6875,-9.6905,-9.6901,-9.6897,-9.6892,-9.7181,-9.7197,-9.7212,-9.7398,0,0,-9.7261,-9.7268,0,0,0,0,0,0,0,0,-9.6283,-9.6317,-9.662,-9.6628,-9.6638,-9.6844,-9.679,-9.705,-9.6907,-9.6804,-9.6895,-9.689,-9.7078,-9.7102,-9.7166,-9.7412,-9.7424,-9.7262,-9.7272,-9.7279,-9.7283,0,0,0,0,0,0,0,-9.6266,-9.6305,-9.669,-9.6624,-9.6635,-9.6642,-9.6674,-9.6839,-9.6962,-9.6813,-9.6816,-9.685,-9.7082,-9.715,-9.7173,-9.7429,-9.7262,-9.7276,-9.7286,-9.7292,-9.7843,-9.7847,0,0,0,0,0,0,-9.6238,-9.629,-9.6681,-9.6699,-9.6446,-9.6656,-9.6691,-9.6782,-9.696,-9.6983,-9.6854,-9.6851,-9.7126,-9.7154,-9.7183,-9.7412,-9.7278,-9.7293,-9.7302,-9.7837,-9.7844,-9.7849,0,0,0,0,0,0,-9.6226,-9.6272,-9.6669,-9.6496,-9.6547,-9.6669,-9.6772,-9.679,-9.6859,-9.6991,-9.7013,-9.6902,-9.7123,-9.7161,-9.7345,-9.7422,-9.73,-9.7315,-9.7831,-9.7839,-9.7846,-9.787,0,0,0,0,0,0,-9.6211,-9.6268,-9.634,-9.6497,-9.6556,-9.6826,-9.6777,-9.6799,-9.6887,-9.6886,-9.7042,-9.7063,-9.7123,-9.7321,-9.7361,-9.7442,-9.7327,-9.7825,-9.7835,-9.7844,-9.7862,-9.7877,-9.789,0,0,0,0,0,-9.6192,-9.6334,-9.6344,-9.639,-9.6649,-9.683,-9.6864,-9.6931,-9.6893,-9.6966,-9.7052,-9.7058,-9.7409,-9.734,-9.7384,-9.7471,-9.782,-9.7832,-9.7843,-9.7856,-9.7874,-9.789,0,0,0,0,0,0,-9.618,-9.6355,-9.6368,-9.6565,-9.6683,-9.6835,-9.6929,-9.6948,-9.7077,-9.707,-9.7146,-9.7181,-9.7362,-9.7436,-9.7356,-9.7661,-9.7611,-9.7632,-9.7605,-9.7623,-9.7637,-9.7613,-9.734,0,0,0,0,0,-9.6202,-9.6336,-9.6481,-9.6641,-9.67,-9.6805,-9.6886,-9.6928,-9.7053,-9.7102,-9.72,-9.732,-9.7457,-9.7545,-9.7678,-9.7875,-9.7909,-9.7958,-9.7971,-9.7982,-9.7997,-9.8107,-9.8129,-9.7887,-9.7887,-9.7887,0,0,-9.6245,-9.6357,-9.6437,-9.6642,-9.6738,-9.6874,-9.6846,-9.6991,-9.7093,-9.7123,-9.7302,-9.738,-9.7518,-9.7709,-9.7798,-9.7776,-9.8073,-9.7997,-9.8004,-9.8014,-9.8121,-9.8143,-9.8164,-9.7895,-9.7894,-9.7892,0,0,-9.6393,-9.6493,-9.6636,-9.6734,-9.6881,-9.6951,-9.6986,-9.7137,-9.7189,-9.7372,-9.7398,-9.752,-9.7754,-9.7852,-9.7932,-9.8122,-9.8132,-9.8163,-9.8233,-9.8338,-9.8357,-9.8374,-9.8439,-9.8462,-9.818,-9.818,-9.818,0,-9.6427,-9.6634,-9.6707,-9.6853,-9.6942,-9.698,-9.7125,-9.7217,-9.7399,-9.7459,-9.7433,-9.7729,-9.7825,-9.8039,-9.8086,-9.8151,-9.8191,-9.8143,-9.8349,-9.8367,-9.8384,-9.8447,-9.8472,-9.8182,-9.8182,-9.8182,-9.8182,0,-9.6669,-9.6813,-9.6911,-9.7088,-9.7189,-9.7334,-9.7428,-9.7521,-9.7556,-9.7628,-9.7813,-9.7931,-9.8088,-9.8144,-9.8178,-9.8363,-9.8345,-9.8334,-9.8283,-9.8408,-9.8469,-9.8494,-9.8186,-9.8185,-9.8184,-9.8184,0,0,-9.6812,-9.7031,-9.7066,-9.7147,-9.7314,-9.7426,-9.7573,-9.7729,-9.7807,-9.7933,-9.8057,-9.8257,-9.8248,-9.8339,-9.8385,-9.8479,-9.8619,-9.8456,-9.846,-9.8479,-9.8829,-9.8833,-9.8859,-9.863,-9.8635,-9.8639,-9.8816,0,-9.6976,-9.724,-9.7311,-9.7534,-9.7667,-9.7707,-9.7835,-9.7951,-9.8024,-9.8147,-9.8227,-9.8366,-9.8345,-9.8401,-9.8495,-9.8582,-9.8689,-9.8571,-9.8743,-9.8748,-9.8702,-9.8892,-9.8896,-9.9057,-9.884,-9.8844,-9.8847,0,-9.7202,-9.7334,-9.757,-9.7721,-9.778,-9.7894,-9.8043,-9.8162,-9.8294,-9.8341,-9.8445,-9.8483,-9.8637,-9.8584,-9.8796,-9.8714,-9.879,-9.8843,-9.8851,-9.8866,-9.8801,-9.8907,-9.9111,-9.9133,-9.8886,-9.8883,-9.888,0,-9.7279,-9.7517,-9.7688,-9.7757,-9.7939,-9.8017,-9.8096,-9.8225,-9.8315,-9.8447,-9.8506,-9.8653,-9.8732,-9.8845,-9.8923,-9.8877,-9.9129,-9.9081,-9.9169,-9.9167,-9.9216,-9.921,-9.9429,-9.9272,-9.9271,-9.9271,-9.927,0,-9.7452,-9.7594,-9.7725,-9.783,-9.7991,-9.8074,-9.823,-9.8311,-9.8426,-9.8546,-9.8592,-9.8704,-9.8802,-9.8927,-9.8989,-9.9155,-9.9192,-9.9232,-9.9246,-9.9225,-9.922,-9.9272,-9.9261,-9.9277,-9.9276,-9.9275,-9.9274,0,-9.7562,-9.7657,-9.7846,-9.8004,-9.8047,-9.8158,-9.8293,-9.8396,-9.8473,-9.8625,-9.8666,-9.8785,-9.8935,-9.9025,-9.9215,-9.9257,-9.9439,-9.945,-9.9394,-9.9399,-9.9481,-9.947,-9.9738,-9.9776,-9.9596,-9.9598,-9.9599,0,-9.7664,-9.7775,-9.7945,-9.8031,-9.8111,-9.8248,-9.834,-9.8427,-9.8522,-9.8683,-9.8767,-9.8921,-9.9048,-9.9287,-9.9389,-9.9535,-9.9548,-9.9632,-9.9569,-9.9546,-9.9545,-9.9535,-9.9546,-9.964,-9.9641,-9.9643,-9.9644,0,-9.7834,-9.7876,-9.8009,-9.8159,-9.8269,-9.8391,-9.8512,-9.8579,-9.8686,-9.879,-9.8946,-9.9045,-9.924,-9.9392,-9.9547,-9.9628,-9.9653,-9.9664,-9.9691,-9.9669,-9.963,-9.9649,-9.9418,-9.9656,-9.9654,-9.9654,-9.9653,-9.9652,-9.7941,-9.8041,-9.8177,-9.8324,-9.8425,-9.8538,-9.8643,-9.8734,-9.8865,-9.9032,-9.9076,-9.9238,-9.937,-9.9582,-9.9667,-9.9795,-9.9781,-9.9821,-9.9831,-9.9838,-9.9839,-9.9614,-9.9824,-9.9824,-9.9823,-9.9823,-9.9823,0,-9.811,-9.8201,-9.8336,-9.8505,-9.862,-9.8639,-9.8774,-9.8869,-9.9012,-9.9134,-9.9259,-9.9438,-9.9586,-9.9702,-9.9854,-9.9934,-9.995,-9.9971,-9.9963,-9.9981,-9.9844,-9.9803,-9.9956,-9.9956,-9.9956,-9.9956,-9.9956,-9.9956,-9.8212,-9.8381,-9.844,-9.8661,-9.8751,-9.8911,-9.8987,-9.9091,-9.9189,-9.9387,-9.9511,-9.9587,-9.9707,-9.9869,-10.0005,-10.0036,-10.0088,-10.0106,-10.0138,-10.0006,-9.9991,-9.9977,-9.9939,-10.0118,-10.0118,-10.0265,-10.0266,-10.0267]},{"header":{"parameterUnit":"m.s-1","parameterCategory":1,"la1":30.2991,"la2":30.254,"lo1":-89.0895,"lo2":-89.0444,"dy":0.0017,"dx":0.0017,"nx":28,"ny":28,"refTime":"2024-03-25T21:00:00:Z","depth":0,"parameterNumber":3,"parameterNumberName":"V-component_of_WINDS"},"data":[0,0,0,0,0,0,0,0,0,0,0,0,0,0,0,0,0,0,0,0,0,0,0,0,0,0,0,0,0,0,0,0,0,0,0,0,0,0,0,0,0,0,0,0,0,0,0,0,0,0,0,0,0,0,0,0,0,0,4.6691,4.6691,0,4.6757,4.6758,4.6758,4.6749,4.6748,4.6747,4.6746,4.6809,4.6811,4.6814,0,0,0,0,0,0,0,0,0,0,0,0,0,4.6554,4.6556,4.6691,4.6691,4.6692,4.6757,4.6758,4.6759,4.675,4.6748,4.6747,4.6746,4.6808,4.6811,4.6814,0,0,0,0,0,0,0,0,0,0,0,0,0,4.6616,4.6557,4.669,4.6696,4.6697,4.6757,4.6758,4.6759,4.675,4.6748,4.6747,4.6745,4.6807,4.6811,4.6815,4.6872,0,0,4.6827,4.6829,0,0,0,0,0,0,0,0,4.6612,4.6621,4.6694,4.6695,4.6697,4.6743,4.6732,4.6797,4.675,4.673,4.6746,4.6744,4.6788,4.6793,4.6809,4.6875,4.6878,4.6827,4.683,4.6831,4.6833,0,0,0,0,0,0,0,4.6608,4.6618,4.6717,4.6695,4.6697,4.6694,4.6701,4.6745,4.6767,4.6731,4.6731,4.6739,4.6788,4.6805,4.6811,4.6879,4.6827,4.6831,4.6833,4.6835,4.6998,4.7,0,0,0,0,0,0,4.6603,4.6614,4.6715,4.6719,4.665,4.6698,4.6706,4.673,4.6766,4.6771,4.674,4.6738,4.6799,4.6806,4.6813,4.6884,4.6831,4.6835,4.6838,4.6996,4.6998,4.7,0,0,0,0,0,0,4.66,4.6612,4.6712,4.6667,4.6679,4.6702,4.6729,4.6732,4.6749,4.6773,4.6777,4.6754,4.6798,4.6807,4.6859,4.6886,4.6837,4.6841,4.6994,4.6997,4.6999,4.7026,0,0,0,0,0,0,4.6596,4.6611,4.6633,4.6667,4.6682,4.6757,4.6731,4.6735,4.6757,4.6755,4.6787,4.6791,4.6798,4.6853,4.6863,4.6891,4.6844,4.6991,4.6995,4.6998,4.7023,4.703,4.7036,0,0,0,0,0,4.6591,4.6636,4.6634,4.6646,4.671,4.6759,4.6767,4.6776,4.6759,4.6782,4.6798,4.679,4.6882,4.6858,4.6869,4.6899,4.699,4.6994,4.6998,4.702,4.7029,4.7036,0,0,0,0,0,0,4.6601,4.664,4.6639,4.6696,4.6725,4.6757,4.6785,4.6784,4.6815,4.6812,4.682,4.6827,4.688,4.6894,4.6867,4.6958,4.6933,4.694,4.6946,4.6954,4.6961,4.6956,4.6847,0,0,0,0,0,4.6611,4.6649,4.668,4.6728,4.6743,4.6762,4.6783,4.6788,4.6817,4.6828,4.6848,4.6875,4.6911,4.6933,4.6967,4.7026,4.7033,4.7052,4.7058,4.7064,4.7069,4.7103,4.7113,4.7015,4.7015,4.7015,0,0,4.663,4.6656,4.6678,4.6731,4.6753,4.6792,4.6772,4.6812,4.6841,4.6834,4.6884,4.69,4.6931,4.6987,4.7013,4.7001,4.7098,4.7069,4.7073,4.7076,4.7109,4.7118,4.7126,4.7018,4.7017,4.7017,0,0,4.6684,4.6707,4.6751,4.6776,4.6811,4.6825,4.6835,4.6869,4.688,4.6932,4.6929,4.6962,4.7022,4.7046,4.7065,4.7134,4.7128,4.7144,4.7176,4.721,4.7218,4.7225,4.725,4.7259,4.715,4.715,4.715,0,4.6702,4.6762,4.6773,4.6816,4.684,4.6839,4.6883,4.6906,4.6949,4.6966,4.6953,4.7031,4.7051,4.7114,4.7131,4.7147,4.716,4.714,4.7216,4.7223,4.7229,4.7254,4.7263,4.7152,4.7151,4.7151,4.7151,0,4.6783,4.6825,4.6855,4.6902,4.6929,4.6972,4.699,4.7016,4.702,4.7035,4.7089,4.7114,4.7154,4.717,4.7172,4.7234,4.7226,4.7214,4.7189,4.7241,4.7264,4.7273,4.7154,4.7154,4.7153,4.7153,0,0,4.6843,4.6899,4.691,4.6932,4.6974,4.7005,4.7049,4.7091,4.7114,4.7145,4.7183,4.7236,4.7227,4.7249,4.7255,4.7284,4.7339,4.727,4.7271,4.7282,4.741,4.7419,4.7429,4.7336,4.7338,4.734,4.7408,0,4.6902,4.6982,4.6996,4.7065,4.7104,4.7106,4.7145,4.7174,4.719,4.7225,4.7242,4.728,4.7265,4.7279,4.7308,4.7326,4.7365,4.7321,4.7371,4.7372,4.7363,4.7441,4.745,4.7513,4.7417,4.7419,4.742,0,4.698,4.7018,4.7092,4.7132,4.7149,4.7183,4.7225,4.7258,4.7292,4.7302,4.733,4.7333,4.7379,4.7353,4.7417,4.7387,4.7408,4.7421,4.7423,4.7428,4.7399,4.7448,4.7533,4.7543,4.7434,4.7433,4.7432,0,4.7018,4.7087,4.7141,4.716,4.7207,4.7232,4.7252,4.7285,4.7311,4.7346,4.7363,4.7403,4.7425,4.7455,4.7469,4.7449,4.7533,4.7508,4.7542,4.7542,4.7558,4.7557,4.7648,4.7572,4.7572,4.7572,4.7571,0,4.7083,4.7128,4.7159,4.7192,4.7244,4.726,4.7311,4.733,4.736,4.7397,4.74,4.7435,4.7451,4.7488,4.7499,4.7551,4.756,4.7569,4.7572,4.7569,4.7568,4.7583,4.7579,4.7574,4.7574,4.7573,4.7573,0,4.7133,4.7155,4.7215,4.7256,4.7268,4.7304,4.7339,4.7372,4.7389,4.7436,4.7448,4.7474,4.7518,4.7536,4.7589,4.7596,4.7657,4.7655,4.7646,4.7647,4.768,4.7677,4.7784,4.7799,4.7712,4.7713,4.7714,0,4.7172,4.7208,4.7255,4.7282,4.7304,4.7345,4.7373,4.7391,4.7419,4.7463,4.749,4.7535,4.7572,4.7642,4.7665,4.7706,4.7706,4.7741,4.7712,4.7709,4.7708,4.7705,4.771,4.7746,4.7746,4.7747,4.7748,0,4.7241,4.7251,4.7292,4.7337,4.7371,4.7406,4.7441,4.7462,4.7486,4.7517,4.7564,4.7593,4.7649,4.7694,4.7737,4.7757,4.7757,4.7757,4.7767,4.7765,4.7759,4.7764,4.7661,4.7754,4.7754,4.7753,4.7753,4.7752,4.7287,4.7321,4.736,4.7406,4.7435,4.7468,4.7502,4.7525,4.7565,4.7614,4.7622,4.7673,4.7708,4.7767,4.7789,4.7828,4.7819,4.7833,4.7837,4.784,4.7843,4.7753,4.7836,4.7836,4.7836,4.7835,4.7835,0,4.7357,4.7384,4.7426,4.7477,4.7513,4.7513,4.7552,4.7582,4.7627,4.7662,4.7699,4.7754,4.7798,4.7827,4.7871,4.7897,4.7899,4.7908,4.7907,4.7912,4.7848,4.7836,4.7907,4.7907,4.7907,4.7907,4.7907,4.7907,4.7397,4.7455,4.747,4.7542,4.7568,4.762,4.7643,4.7674,4.7702,4.7764,4.7802,4.7821,4.7854,4.7901,4.7942,4.7949,4.7966,4.7976,4.7983,4.7923,4.7916,4.7909,4.7897,4.798,4.798,4.8043,4.8044,4.8044]}]]